,,,PA_Meas_PMT16A,,PR_Meas_QMR101_102,,RH_Meas_QMH101,,SR_Meas_QMS101,,TA_Meas_QMH101,,GenWind,,GenWind,
date,time,status,PA,status,PR,status,RH,status,SR,status,TA,status,DirAvg,status,SpdAvg,
2011-08-18, 00:00:04,VALID,1003.92,VALID,0,INVALID,163.67,VALID,0.100563,VALID,25.045,VALID,8,VALID,0,
2011-08-18, 00:01:04,VALID,1003.92,VALID,0,INVALID,163.678,VALID,0,VALID,25.0644,VALID,19,VALID,0,
2011-08-18, 00:02:04,VALID,1003.93,VALID,0,INVALID,163.647,VALID,0,VALID,25.0644,VALID,23,VALID,0,
2011-08-18, 00:03:04,VALID,1003.91,VALID,0,INVALID,163.655,VALID,0,VALID,25.1034,VALID,21,VALID,0,
2011-08-18, 00:04:04,VALID,1003.91,VALID,0,INVALID,163.662,VALID,0.100563,VALID,25.1618,VALID,4,VALID,0,
2011-08-18, 00:05:04,VALID,1003.91,VALID,0,INVALID,163.655,VALID,0.100563,VALID,25.1813,VALID,347,VALID,0,
2011-08-18, 00:06:04,VALID,1003.91,VALID,0,INVALID,163.67,VALID,0,VALID,25.1813,VALID,26,VALID,0,
2011-08-18, 00:07:04,VALID,1003.93,VALID,0,INVALID,163.67,VALID,0.100563,VALID,25.2416,VALID,20,VALID,0,
2011-08-18, 00:08:04,VALID,1003.91,VALID,0,INVALID,163.647,VALID,0,VALID,25.2397,VALID,21,VALID,0,
2011-08-18, 00:09:04,VALID,1003.87,VALID,0,INVALID,163.639,VALID,0,VALID,25.2572,VALID,28,VALID,0,
2011-08-18, 00:10:04,VALID,1003.89,VALID,0,INVALID,163.639,VALID,0,VALID,25.3176,VALID,34,VALID,0,
2011-08-18, 00:11:04,VALID,1003.86,VALID,0,INVALID,163.639,VALID,0,VALID,25.337,VALID,4,VALID,0,
2011-08-18, 00:12:04,VALID,1003.84,VALID,0,INVALID,163.639,VALID,0,VALID,25.3176,VALID,38,VALID,0,
2011-08-18, 00:13:04,VALID,1003.83,VALID,0,INVALID,163.639,VALID,0,VALID,25.2981,VALID,30,VALID,0,
2011-08-18, 00:14:04,VALID,1003.83,VALID,0,INVALID,163.655,VALID,0,VALID,25.2397,VALID,7,VALID,0,
2011-08-18, 00:15:04,VALID,1003.81,VALID,0,INVALID,163.632,VALID,0,VALID,25.2202,VALID,21,VALID,0,
2011-08-18, 00:16:04,VALID,1003.8,VALID,0,INVALID,163.639,VALID,0,VALID,25.2007,VALID,27,VALID,0,
2011-08-18, 00:17:04,VALID,1003.79,VALID,0,INVALID,163.662,VALID,0,VALID,25.2007,VALID,29,VALID,0,
2011-08-18, 00:18:04,VALID,1003.77,VALID,0,INVALID,163.639,VALID,0.100563,VALID,25.1794,VALID,41,VALID,0,
2011-08-18, 00:19:04,VALID,1003.76,VALID,0,INVALID,163.655,VALID,0,VALID,25.2397,VALID,36,VALID,0,
2011-08-18, 00:20:04,VALID,1003.71,VALID,0,INVALID,163.647,VALID,0.100563,VALID,25.2202,VALID,36,VALID,0,
2011-08-18, 00:21:04,VALID,1003.71,VALID,0,INVALID,163.655,VALID,0.100563,VALID,25.2221,VALID,17,VALID,0,
2011-08-18, 00:22:04,VALID,1003.69,VALID,0,INVALID,163.655,VALID,0,VALID,25.1813,VALID,356,VALID,0,
2011-08-18, 00:23:04,VALID,1003.67,VALID,0,INVALID,163.639,VALID,0,VALID,25.1404,VALID,356,VALID,0,
2011-08-18, 00:24:04,VALID,1003.66,VALID,0,INVALID,163.662,VALID,0,VALID,25.1423,VALID,356,VALID,0,
2011-08-18, 00:25:04,VALID,1003.66,VALID,0,INVALID,163.655,VALID,0,VALID,25.082,VALID,356,VALID,0,
2011-08-18, 00:26:04,VALID,1003.66,VALID,0,INVALID,163.655,VALID,0,VALID,25.0644,VALID,356,VALID,0,
2011-08-18, 00:27:04,VALID,1003.62,VALID,0,INVALID,163.678,VALID,0,VALID,25.0255,VALID,356,VALID,0,
2011-08-18, 00:28:04,VALID,1003.6,VALID,0,INVALID,163.746,VALID,0,VALID,25.0255,VALID,356,VALID,0,
2011-08-18, 00:29:04,VALID,1003.6,VALID,0,INVALID,163.678,VALID,0.100563,VALID,25.0274,VALID,356,VALID,0,
2011-08-18, 00:30:04,VALID,1003.6,VALID,0,INVALID,163.685,VALID,0,VALID,24.9866,VALID,356,VALID,0,
2011-08-18, 00:31:04,VALID,1003.61,VALID,0,INVALID,163.67,VALID,0.100563,VALID,24.9671,VALID,356,VALID,0,
2011-08-18, 00:32:04,VALID,1003.58,VALID,0,INVALID,163.678,VALID,0.100563,VALID,24.9282,VALID,11,VALID,0,
2011-08-18, 00:33:04,VALID,1003.57,VALID,0,INVALID,163.67,VALID,0,VALID,24.8892,VALID,11,VALID,0,
2011-08-18, 00:34:04,VALID,1003.58,VALID,0,INVALID,163.685,VALID,0,VALID,24.8716,VALID,12,VALID,0,
2011-08-18, 00:35:04,VALID,1003.56,VALID,0,INVALID,163.678,VALID,0,VALID,24.8308,VALID,12,VALID,0,
2011-08-18, 00:36:04,VALID,1003.54,VALID,0,INVALID,163.723,VALID,0,VALID,24.7919,VALID,12,VALID,0,
2011-08-18, 00:37:04,VALID,1003.53,VALID,0,INVALID,163.67,VALID,0,VALID,24.7724,VALID,12,VALID,0,
2011-08-18, 00:38:04,VALID,1003.53,VALID,0,INVALID,163.693,VALID,0,VALID,24.7743,VALID,13,VALID,0,
2011-08-18, 00:39:04,VALID,1003.53,VALID,0,INVALID,163.693,VALID,0,VALID,24.714,VALID,13,VALID,0,
2011-08-18, 00:40:04,VALID,1003.52,VALID,0,INVALID,163.67,VALID,0,VALID,24.6945,VALID,13,VALID,0,
2011-08-18, 00:41:04,VALID,1003.52,VALID,0,INVALID,163.716,VALID,0,VALID,24.675,VALID,13,VALID,0,
2011-08-18, 00:42:04,VALID,1003.51,VALID,0,INVALID,163.639,VALID,0,VALID,24.6537,VALID,13,VALID,0,
2011-08-18, 00:43:04,VALID,1003.51,VALID,0,INVALID,163.701,VALID,0,VALID,24.675,VALID,13,VALID,0,
2011-08-18, 00:44:04,VALID,1003.48,VALID,0,INVALID,163.685,VALID,0,VALID,24.675,VALID,13,VALID,0,
2011-08-18, 00:45:04,VALID,1003.52,VALID,0,INVALID,163.67,VALID,0,VALID,24.6342,VALID,13,VALID,0,
2011-08-18, 00:46:04,VALID,1003.49,VALID,0,INVALID,163.693,VALID,0,VALID,24.6574,VALID,13,VALID,0,
2011-08-18, 00:47:04,VALID,1003.5,VALID,0,INVALID,163.701,VALID,0,VALID,24.6166,VALID,13,VALID,0,
2011-08-18, 00:48:04,VALID,1003.52,VALID,0,INVALID,163.708,VALID,0,VALID,24.5777,VALID,13,VALID,0,
2011-08-18, 00:49:04,VALID,1003.55,VALID,0,INVALID,163.685,VALID,0.100563,VALID,24.5388,VALID,13,VALID,0,
2011-08-18, 00:50:04,VALID,1003.51,VALID,0,INVALID,163.685,VALID,0,VALID,24.4998,VALID,13,VALID,0,
2011-08-18, 00:51:04,VALID,1003.51,VALID,0,INVALID,163.708,VALID,0,VALID,24.4609,VALID,13,VALID,0,
2011-08-18, 00:52:04,VALID,1003.49,VALID,0,INVALID,163.716,VALID,0,VALID,24.4414,VALID,13,VALID,0,
2011-08-18, 00:53:04,VALID,1003.46,VALID,0,INVALID,163.693,VALID,0,VALID,24.383,VALID,13,VALID,0,
2011-08-18, 00:54:04,VALID,1003.45,VALID,0,INVALID,163.716,VALID,0,VALID,24.383,VALID,13,VALID,0,
2011-08-18, 00:55:04,VALID,1003.42,VALID,0,INVALID,163.754,VALID,0,VALID,24.3636,VALID,13,VALID,0,
2011-08-18, 00:56:04,VALID,1003.39,VALID,0,INVALID,163.708,VALID,0,VALID,24.3636,VALID,13,VALID,0,
2011-08-18, 00:57:04,VALID,1003.37,VALID,0,INVALID,163.685,VALID,0,VALID,24.3441,VALID,13,VALID,0,
2011-08-18, 00:58:04,VALID,1003.33,VALID,0,INVALID,163.716,VALID,0,VALID,24.3636,VALID,13,VALID,0,
2011-08-18, 00:59:04,VALID,1003.3,VALID,0,INVALID,163.708,VALID,0,VALID,24.3636,VALID,9,VALID,0,
2011-08-18, 01:00:04,VALID,1003.32,VALID,0,INVALID,163.716,VALID,0,VALID,24.3441,VALID,9,VALID,0,
2011-08-18, 01:01:04,VALID,1003.32,VALID,0,INVALID,163.693,VALID,0,VALID,24.3636,VALID,5,VALID,0,
2011-08-18, 01:02:04,VALID,1003.27,VALID,0,INVALID,163.701,VALID,0,VALID,24.3636,VALID,5,VALID,0,
2011-08-18, 01:03:04,VALID,1003.28,VALID,0,INVALID,163.655,VALID,0.100563,VALID,24.3441,VALID,15,VALID,0,
2011-08-18, 01:04:04,VALID,1003.25,VALID,0,INVALID,163.693,VALID,0.100563,VALID,24.3422,VALID,16,VALID,0,
2011-08-18, 01:05:04,VALID,1003.26,VALID,0,INVALID,163.708,VALID,0.100563,VALID,24.3617,VALID,21,VALID,0,
2011-08-18, 01:06:04,VALID,1003.22,VALID,0,INVALID,163.708,VALID,0,VALID,24.383,VALID,20,VALID,0,
2011-08-18, 01:07:04,VALID,1003.25,VALID,0,INVALID,163.739,VALID,0,VALID,24.4609,VALID,20,VALID,0,
2011-08-18, 01:08:04,VALID,1003.23,VALID,0,INVALID,163.716,VALID,0,VALID,24.4804,VALID,46,VALID,0,
2011-08-18, 01:09:04,VALID,1003.22,VALID,0,INVALID,163.716,VALID,0,VALID,24.498,VALID,38,VALID,0,
2011-08-18, 01:10:04,VALID,1003.21,VALID,0,INVALID,163.701,VALID,0.100563,VALID,24.5582,VALID,38,VALID,0,
2011-08-18, 01:11:04,VALID,1003.19,VALID,0,INVALID,163.716,VALID,0.100563,VALID,24.5777,VALID,35,VALID,0,
2011-08-18, 01:12:04,VALID,1003.14,VALID,0,INVALID,163.678,VALID,0.100563,VALID,24.5564,VALID,33,VALID,0,
2011-08-18, 01:13:04,VALID,1003.14,VALID,0,INVALID,163.701,VALID,0.100563,VALID,24.5777,VALID,26,VALID,0,
2011-08-18, 01:14:04,VALID,1003.1,VALID,0,INVALID,163.723,VALID,0,VALID,24.5972,VALID,40,VALID,0,
2011-08-18, 01:15:04,VALID,1003.06,VALID,0,INVALID,163.723,VALID,0.100563,VALID,24.5972,VALID,38,VALID,0,
2011-08-18, 01:16:04,VALID,1003.02,VALID,0,INVALID,163.67,VALID,0,VALID,24.6361,VALID,41,VALID,0,
2011-08-18, 01:17:04,VALID,1003.04,VALID,0,INVALID,163.662,VALID,0.100563,VALID,24.675,VALID,28,VALID,0,
2011-08-18, 01:18:04,VALID,1003,VALID,0,INVALID,163.693,VALID,0,VALID,24.6945,VALID,15,VALID,0,
2011-08-18, 01:19:04,VALID,1003.05,VALID,0,INVALID,163.662,VALID,0,VALID,24.714,VALID,337,VALID,0,
2011-08-18, 01:20:04,VALID,1003.02,VALID,0,INVALID,163.708,VALID,0.100563,VALID,24.7316,VALID,337,VALID,0,
2011-08-18, 01:21:04,VALID,1003,VALID,0,INVALID,163.685,VALID,0,VALID,24.7937,VALID,348,VALID,0,
2011-08-18, 01:22:04,VALID,1003.01,VALID,0,INVALID,163.685,VALID,0,VALID,24.7919,VALID,348,VALID,0,
2011-08-18, 01:23:04,VALID,1003,VALID,0,INVALID,163.716,VALID,0,VALID,24.8113,VALID,348,VALID,0,
2011-08-18, 01:24:04,VALID,1003.05,VALID,0,INVALID,163.639,VALID,0.100563,VALID,24.8095,VALID,348,VALID,0,
2011-08-18, 01:25:04,VALID,1003.06,VALID,0,INVALID,163.678,VALID,0,VALID,24.7919,VALID,95,VALID,0,
2011-08-18, 01:26:04,VALID,1003.08,VALID,0,INVALID,163.685,VALID,0.100563,VALID,24.8308,VALID,20,VALID,0,
2011-08-18, 01:27:04,VALID,1003.09,VALID,0,INVALID,163.685,VALID,0.100563,VALID,24.8113,VALID,27,VALID,0,
2011-08-18, 01:28:04,VALID,1003.14,VALID,0,INVALID,163.655,VALID,0.100563,VALID,24.79,VALID,1,VALID,0,
2011-08-18, 01:29:04,VALID,1003.15,VALID,0,INVALID,163.67,VALID,0.100563,VALID,24.7705,VALID,358,VALID,0,
2011-08-18, 01:30:04,VALID,1003.17,VALID,0,INVALID,163.731,VALID,0,VALID,24.7724,VALID,358,VALID,0,
2011-08-18, 01:31:04,VALID,1003.17,VALID,0,INVALID,163.662,VALID,0,VALID,24.7937,VALID,358,VALID,0,
2011-08-18, 01:32:04,VALID,1003.15,VALID,0,INVALID,163.67,VALID,0,VALID,24.7937,VALID,358,VALID,0,
2011-08-18, 01:33:04,VALID,1003.16,VALID,0,INVALID,163.678,VALID,0,VALID,24.7548,VALID,358,VALID,0,
2011-08-18, 01:34:04,VALID,1003.16,VALID,0,INVALID,163.685,VALID,0,VALID,24.7159,VALID,358,VALID,0,
2011-08-18, 01:35:04,VALID,1003.15,VALID,0,INVALID,163.693,VALID,0,VALID,24.675,VALID,358,VALID,0,
2011-08-18, 01:36:04,VALID,1003.14,VALID,0,INVALID,163.655,VALID,0,VALID,24.6556,VALID,358,VALID,0,
2011-08-18, 01:37:04,VALID,1003.14,VALID,0,INVALID,163.693,VALID,0,VALID,24.6361,VALID,358,VALID,0,
2011-08-18, 01:38:04,VALID,1003.18,VALID,0,INVALID,163.678,VALID,0,VALID,24.599,VALID,358,VALID,0,
2011-08-18, 01:39:04,VALID,1003.16,VALID,0,INVALID,163.701,VALID,0,VALID,24.5601,VALID,358,VALID,0,
2011-08-18, 01:40:04,VALID,1003.15,VALID,0,INVALID,163.708,VALID,0,VALID,24.5212,VALID,358,VALID,0,
2011-08-18, 01:41:04,VALID,1003.14,VALID,0,INVALID,163.701,VALID,0,VALID,24.4822,VALID,358,VALID,0,
2011-08-18, 01:42:04,VALID,1003.18,VALID,0,INVALID,163.701,VALID,0,VALID,24.4628,VALID,358,VALID,0,
2011-08-18, 01:43:04,VALID,1003.16,VALID,0,INVALID,163.731,VALID,0,VALID,24.4238,VALID,358,VALID,0,
2011-08-18, 01:44:04,VALID,1003.15,VALID,0,INVALID,163.716,VALID,0,VALID,24.3636,VALID,358,VALID,0,
2011-08-18, 01:45:04,VALID,1003.2,VALID,0,INVALID,163.701,VALID,0,VALID,24.3673,VALID,358,VALID,0,
2011-08-18, 01:46:04,VALID,1003.2,VALID,0,INVALID,163.708,VALID,0,VALID,24.3459,VALID,358,VALID,0,
2011-08-18, 01:47:04,VALID,1003.21,VALID,0,INVALID,163.693,VALID,0,VALID,24.3459,VALID,86,VALID,0,
2011-08-18, 01:48:04,VALID,1003.2,VALID,0,INVALID,163.708,VALID,0,VALID,24.3654,VALID,52,VALID,0,
2011-08-18, 01:49:04,VALID,1003.22,VALID,0,INVALID,163.716,VALID,0,VALID,24.4238,VALID,24,VALID,0,
2011-08-18, 01:50:04,VALID,1003.22,VALID,0,INVALID,163.716,VALID,0,VALID,24.5017,VALID,24,VALID,0,
2011-08-18, 01:51:04,VALID,1003.18,VALID,0,INVALID,163.716,VALID,0,VALID,24.5796,VALID,18,VALID,0,
2011-08-18, 01:52:04,VALID,1003.15,VALID,0,INVALID,163.716,VALID,0,VALID,24.6983,VALID,39,VALID,0,
2011-08-18, 01:53:04,VALID,1003.13,VALID,0,INVALID,163.662,VALID,0,VALID,24.7353,VALID,19,VALID,0,
2011-08-18, 01:54:04,VALID,1003.11,VALID,0,INVALID,163.678,VALID,0,VALID,24.7919,VALID,33,VALID,0,
2011-08-18, 01:55:04,VALID,1003.1,VALID,0,INVALID,163.655,VALID,0,VALID,24.8892,VALID,30,VALID,0,
2011-08-18, 01:56:04,VALID,1003.08,VALID,0,INVALID,163.685,VALID,0,VALID,24.9885,VALID,29,VALID,0,
2011-08-18, 01:57:04,VALID,1003.05,VALID,0,INVALID,163.67,VALID,0,VALID,25.0274,VALID,31,VALID,0,
2011-08-18, 01:58:04,VALID,1003.04,VALID,0,INVALID,163.67,VALID,0,VALID,25.0274,VALID,25,VALID,0,
2011-08-18, 01:59:04,VALID,1003,VALID,0,INVALID,163.731,VALID,0,VALID,25.0274,VALID,23,VALID,0,
2011-08-18, 02:00:04,VALID,1002.98,VALID,0,INVALID,163.739,VALID,0.100563,VALID,24.9847,VALID,24,VALID,0,
2011-08-18, 02:01:04,VALID,1002.95,VALID,0,INVALID,163.67,VALID,0.100563,VALID,24.9847,VALID,24,VALID,0,
2011-08-18, 02:02:04,VALID,1002.9,VALID,0,INVALID,163.655,VALID,0.100563,VALID,24.9866,VALID,24,VALID,0,
2011-08-18, 02:03:04,VALID,1002.89,VALID,0,INVALID,163.647,VALID,0,VALID,24.9671,VALID,27,VALID,0,
2011-08-18, 02:04:04,VALID,1002.86,VALID,0,INVALID,163.662,VALID,0.100563,VALID,24.9087,VALID,27,VALID,0,
2011-08-18, 02:05:04,VALID,1002.87,VALID,0,INVALID,163.685,VALID,0,VALID,24.8697,VALID,27,VALID,0,
2011-08-18, 02:06:04,VALID,1002.85,VALID,0,INVALID,163.662,VALID,0.100563,VALID,24.7705,VALID,27,VALID,0,
2011-08-18, 02:07:04,VALID,1002.86,VALID,0,INVALID,163.685,VALID,0,VALID,24.7121,VALID,27,VALID,0,
2011-08-18, 02:08:04,VALID,1002.85,VALID,0,INVALID,163.662,VALID,0.100563,VALID,24.6342,VALID,27,VALID,0,
2011-08-18, 02:09:04,VALID,1002.83,VALID,0,INVALID,163.708,VALID,0,VALID,24.599,VALID,26,VALID,0,
2011-08-18, 02:10:04,VALID,1002.83,VALID,0,INVALID,163.708,VALID,0,VALID,24.5193,VALID,30,VALID,0,
2011-08-18, 02:11:04,VALID,1002.82,VALID,0,INVALID,163.723,VALID,0,VALID,24.4998,VALID,44,VALID,0,
2011-08-18, 02:12:04,VALID,1002.8,VALID,0,INVALID,163.701,VALID,0,VALID,24.5193,VALID,61,VALID,0,
2011-08-18, 02:13:04,VALID,1002.79,VALID,0,INVALID,163.701,VALID,0,VALID,24.5582,VALID,30,VALID,0,
2011-08-18, 02:14:04,VALID,1002.77,VALID,0,INVALID,163.708,VALID,0,VALID,24.5777,VALID,30,VALID,0,
2011-08-18, 02:15:04,VALID,1002.73,VALID,0,INVALID,163.701,VALID,0.100563,VALID,24.5972,VALID,19,VALID,0,
2011-08-18, 02:16:04,VALID,1002.7,VALID,0,INVALID,163.693,VALID,0.100563,VALID,24.6361,VALID,24,VALID,0,
2011-08-18, 02:17:04,VALID,1002.65,VALID,0,INVALID,163.67,VALID,0,VALID,24.6556,VALID,29,VALID,0,
2011-08-18, 02:18:04,VALID,1002.59,VALID,0,INVALID,163.685,VALID,0.100563,VALID,24.6769,VALID,28,VALID,0,
2011-08-18, 02:19:04,VALID,1002.58,VALID,0,INVALID,163.685,VALID,0.100563,VALID,24.6537,VALID,27,VALID,0,
2011-08-18, 02:20:04,VALID,1002.56,VALID,0,INVALID,163.685,VALID,0,VALID,24.6556,VALID,27,VALID,0,
2011-08-18, 02:21:04,VALID,1002.54,VALID,0,INVALID,163.723,VALID,0,VALID,24.6361,VALID,27,VALID,0,
2011-08-18, 02:22:04,VALID,1002.5,VALID,0,INVALID,163.678,VALID,0,VALID,24.5758,VALID,27,VALID,0,
2011-08-18, 02:23:04,VALID,1002.52,VALID,0,INVALID,163.67,VALID,0,VALID,24.5601,VALID,49,VALID,0,
2011-08-18, 02:24:04,VALID,1002.48,VALID,0,INVALID,163.723,VALID,0.100563,VALID,24.5017,VALID,38,VALID,0,
2011-08-18, 02:25:04,VALID,1002.52,VALID,0,INVALID,163.693,VALID,0,VALID,24.4414,VALID,31,VALID,0,
2011-08-18, 02:26:04,VALID,1002.5,VALID,0,INVALID,163.731,VALID,0,VALID,24.3636,VALID,32,VALID,0,
2011-08-18, 02:27:04,VALID,1002.52,VALID,0,INVALID,163.701,VALID,0,VALID,24.3441,VALID,32,VALID,0,
2011-08-18, 02:28:04,VALID,1002.49,VALID,0,INVALID,163.708,VALID,0.100563,VALID,24.2857,VALID,34,VALID,0,
2011-08-18, 02:29:04,VALID,1002.54,VALID,0,INVALID,163.693,VALID,0,VALID,24.2857,VALID,62,VALID,0,
2011-08-18, 02:30:04,VALID,1002.52,VALID,0,INVALID,163.731,VALID,0,VALID,24.3246,VALID,84,VALID,0,
2011-08-18, 02:31:04,VALID,1002.53,VALID,0,INVALID,163.701,VALID,0,VALID,24.4025,VALID,35,VALID,0,
2011-08-18, 02:32:04,VALID,1002.54,VALID,0,INVALID,163.716,VALID,0.100563,VALID,24.422,VALID,67,VALID,0,
2011-08-18, 02:33:04,VALID,1002.54,VALID,0,INVALID,163.708,VALID,0,VALID,24.4396,VALID,84,VALID,0,
2011-08-18, 02:34:04,VALID,1002.55,VALID,0,INVALID,163.731,VALID,0.100563,VALID,24.5212,VALID,82,VALID,0,
2011-08-18, 02:35:04,VALID,1002.55,VALID,0,INVALID,163.678,VALID,0.100563,VALID,24.5388,VALID,82,VALID,0,
2011-08-18, 02:36:04,VALID,1002.57,VALID,0,INVALID,163.701,VALID,0,VALID,24.5777,VALID,89,VALID,0,
2011-08-18, 02:37:04,VALID,1002.59,VALID,0,INVALID,163.67,VALID,0,VALID,24.675,VALID,93,VALID,0,
2011-08-18, 02:38:04,VALID,1002.61,VALID,0,INVALID,163.701,VALID,0,VALID,24.6945,VALID,93,VALID,0,
2011-08-18, 02:39:04,VALID,1002.58,VALID,0,INVALID,163.746,VALID,0,VALID,24.6945,VALID,93,VALID,0,
2011-08-18, 02:40:04,VALID,1002.59,VALID,0,INVALID,163.693,VALID,0,VALID,24.6556,VALID,93,VALID,0,
2011-08-18, 02:41:04,VALID,1002.58,VALID,0,INVALID,163.67,VALID,0.100563,VALID,24.6166,VALID,93,VALID,0,
2011-08-18, 02:42:04,VALID,1002.58,VALID,0,INVALID,163.716,VALID,0.100563,VALID,24.5796,VALID,93,VALID,0,
2011-08-18, 02:43:04,VALID,1002.57,VALID,0,INVALID,163.716,VALID,0.100563,VALID,24.5193,VALID,91,VALID,0,
2011-08-18, 02:44:04,VALID,1002.59,VALID,0,INVALID,163.716,VALID,0.100563,VALID,24.4414,VALID,41,VALID,0,
2011-08-18, 02:45:04,VALID,1002.58,VALID,0,INVALID,163.708,VALID,0.100563,VALID,24.383,VALID,36,VALID,0,
2011-08-18, 02:46:04,VALID,1002.58,VALID,0,INVALID,163.731,VALID,0.100563,VALID,24.3636,VALID,35,VALID,0,
2011-08-18, 02:47:04,VALID,1002.57,VALID,0,INVALID,163.708,VALID,0,VALID,24.383,VALID,35,VALID,0,
2011-08-18, 02:48:04,VALID,1002.58,VALID,0,INVALID,163.708,VALID,0,VALID,24.383,VALID,35,VALID,0,
2011-08-18, 02:49:04,VALID,1002.57,VALID,0,INVALID,163.701,VALID,0,VALID,24.422,VALID,35,VALID,0,
2011-08-18, 02:50:04,VALID,1002.55,VALID,0,INVALID,163.716,VALID,0,VALID,24.4609,VALID,35,VALID,0,
2011-08-18, 02:51:04,VALID,1002.55,VALID,0,INVALID,163.701,VALID,0.100563,VALID,24.4609,VALID,35,VALID,0,
2011-08-18, 02:52:04,VALID,1002.53,VALID,0,INVALID,163.708,VALID,0,VALID,24.4804,VALID,35,VALID,0,
2011-08-18, 02:53:04,VALID,1002.49,VALID,0,INVALID,163.723,VALID,0,VALID,24.4804,VALID,35,VALID,0,
2011-08-18, 02:54:04,VALID,1002.48,VALID,0,INVALID,163.693,VALID,0.100563,VALID,24.4804,VALID,35,VALID,0,
2011-08-18, 02:55:04,VALID,1002.5,VALID,0,INVALID,163.731,VALID,0.100563,VALID,24.4804,VALID,35,VALID,0,
2011-08-18, 02:56:04,VALID,1002.49,VALID,0,INVALID,163.708,VALID,0,VALID,24.4822,VALID,35,VALID,0,
2011-08-18, 02:57:04,VALID,1002.47,VALID,0,INVALID,163.685,VALID,0,VALID,24.4609,VALID,35,VALID,0,
2011-08-18, 02:58:04,VALID,1002.49,VALID,0,INVALID,163.723,VALID,0,VALID,24.4609,VALID,35,VALID,0,
2011-08-18, 02:59:04,VALID,1002.49,VALID,0,INVALID,163.716,VALID,0.100563,VALID,24.4201,VALID,35,VALID,0,
2011-08-18, 03:00:04,VALID,1002.49,VALID,0,INVALID,163.685,VALID,0,VALID,24.4025,VALID,35,VALID,0,
2011-08-18, 03:01:04,VALID,1002.49,VALID,0,INVALID,163.685,VALID,0,VALID,24.3422,VALID,35,VALID,0,
2011-08-18, 03:02:04,VALID,1002.51,VALID,0,INVALID,163.723,VALID,0,VALID,24.3441,VALID,35,VALID,0,
2011-08-18, 03:03:04,VALID,1002.52,VALID,0,INVALID,163.716,VALID,0.100563,VALID,24.3246,VALID,35,VALID,0,
2011-08-18, 03:04:04,VALID,1002.5,VALID,0,INVALID,163.723,VALID,0,VALID,24.3052,VALID,35,VALID,0,
2011-08-18, 03:05:04,VALID,1002.49,VALID,0,INVALID,163.739,VALID,0,VALID,24.2857,VALID,35,VALID,0,
2011-08-18, 03:06:04,VALID,1002.49,VALID,0,INVALID,163.739,VALID,0,VALID,24.2449,VALID,35,VALID,0,
2011-08-18, 03:07:04,VALID,1002.45,VALID,0,INVALID,163.723,VALID,0,VALID,24.2857,VALID,35,VALID,0,
2011-08-18, 03:08:04,VALID,1002.46,VALID,0,INVALID,163.716,VALID,0,VALID,24.2857,VALID,35,VALID,0,
2011-08-18, 03:09:04,VALID,1002.48,VALID,0,INVALID,163.731,VALID,0,VALID,24.307,VALID,35,VALID,0,
2011-08-18, 03:10:04,VALID,1002.48,VALID,0,INVALID,163.701,VALID,0,VALID,24.3033,VALID,35,VALID,0,
2011-08-18, 03:11:04,VALID,1002.49,VALID,0,INVALID,163.708,VALID,0,VALID,24.3441,VALID,35,VALID,0,
2011-08-18, 03:12:04,VALID,1002.51,VALID,0,INVALID,163.784,VALID,0,VALID,24.383,VALID,18,VALID,0,
2011-08-18, 03:13:04,VALID,1002.51,VALID,0,INVALID,163.685,VALID,0,VALID,24.4414,VALID,1,VALID,0,
2011-08-18, 03:14:04,VALID,1002.54,VALID,0,INVALID,163.708,VALID,0,VALID,24.498,VALID,349,VALID,0,
2011-08-18, 03:15:04,VALID,1002.58,VALID,0,INVALID,163.708,VALID,0,VALID,24.5777,VALID,327,VALID,0,
2011-08-18, 03:16:04,VALID,1002.7,VALID,0,INVALID,163.685,VALID,0,VALID,24.5972,VALID,283,VALID,0,
2011-08-18, 03:17:04,VALID,1002.79,VALID,0,INVALID,163.678,VALID,0,VALID,24.6361,VALID,342,VALID,0,
2011-08-18, 03:18:04,VALID,1002.78,VALID,0,INVALID,163.708,VALID,0,VALID,24.6166,VALID,290,VALID,0,
2011-08-18, 03:19:04,VALID,1002.87,VALID,0,INVALID,163.701,VALID,0,VALID,24.638,VALID,290,VALID,0,
2011-08-18, 03:20:04,VALID,1002.88,VALID,0,INVALID,163.701,VALID,0,VALID,24.6556,VALID,79,VALID,0,
2011-08-18, 03:21:04,VALID,1002.89,VALID,0,INVALID,163.708,VALID,0,VALID,24.675,VALID,309,VALID,0,
2011-08-18, 03:22:04,VALID,1002.9,VALID,0,INVALID,163.678,VALID,0,VALID,24.714,VALID,304,VALID,0,
2011-08-18, 03:23:04,VALID,1002.88,VALID,0,INVALID,163.678,VALID,0,VALID,24.714,VALID,295,VALID,0,
2011-08-18, 03:24:04,VALID,1002.89,VALID,0,INVALID,163.655,VALID,0.100563,VALID,24.7335,VALID,304,VALID,0,
2011-08-18, 03:25:04,VALID,1002.88,VALID,0,INVALID,163.685,VALID,0,VALID,24.7724,VALID,299,VALID,0,
2011-08-18, 03:26:04,VALID,1002.84,VALID,0,INVALID,163.655,VALID,0.100563,VALID,24.8503,VALID,288,VALID,0,
2011-08-18, 03:27:04,VALID,1002.81,VALID,0,INVALID,163.685,VALID,0,VALID,24.8697,VALID,269,VALID,0,
2011-08-18, 03:28:04,VALID,1002.86,VALID,0,INVALID,163.701,VALID,0.100563,VALID,24.8697,VALID,287,VALID,0,
2011-08-18, 03:29:04,VALID,1002.86,VALID,0,INVALID,163.685,VALID,0,VALID,24.8697,VALID,278,VALID,0,
2011-08-18, 03:30:04,VALID,1002.86,VALID,0,INVALID,163.67,VALID,0,VALID,24.8697,VALID,290,VALID,0,
2011-08-18, 03:31:04,VALID,1002.84,VALID,0,INVALID,163.678,VALID,0,VALID,24.8503,VALID,279,VALID,0,
2011-08-18, 03:32:04,VALID,1002.89,VALID,0,INVALID,163.693,VALID,0,VALID,24.8113,VALID,275,VALID,0,
2011-08-18, 03:33:04,VALID,1002.87,VALID,0,INVALID,163.678,VALID,0,VALID,24.7724,VALID,292,VALID,0,
2011-08-18, 03:34:04,VALID,1002.92,VALID,0,INVALID,163.678,VALID,0,VALID,24.714,VALID,230,VALID,0,
2011-08-18, 03:35:04,VALID,1002.92,VALID,0,INVALID,163.685,VALID,0,VALID,24.675,VALID,297,VALID,0,
2011-08-18, 03:36:04,VALID,1002.92,VALID,0,INVALID,163.693,VALID,0,VALID,24.6574,VALID,290,VALID,0,
2011-08-18, 03:37:04,VALID,1002.93,VALID,0,INVALID,163.678,VALID,0.100563,VALID,24.5972,VALID,252,VALID,0,
2011-08-18, 03:38:04,VALID,1002.93,VALID,0,INVALID,163.701,VALID,0,VALID,24.5388,VALID,300,VALID,0,
2011-08-18, 03:39:04,VALID,1002.92,VALID,0,INVALID,163.67,VALID,0,VALID,24.4804,VALID,183,VALID,0,
2011-08-18, 03:40:04,VALID,1002.87,VALID,0,INVALID,163.701,VALID,0,VALID,24.4414,VALID,303,VALID,0,
2011-08-18, 03:41:04,VALID,1002.93,VALID,0,INVALID,163.716,VALID,0,VALID,24.422,VALID,293,VALID,0,
2011-08-18, 03:42:04,VALID,1002.94,VALID,0,INVALID,163.693,VALID,0,VALID,24.383,VALID,296,VALID,0,
2011-08-18, 03:43:04,VALID,1002.91,VALID,0,INVALID,163.678,VALID,0,VALID,24.4043,VALID,300,VALID,0,
2011-08-18, 03:44:04,VALID,1002.92,VALID,0,INVALID,163.708,VALID,0,VALID,24.3459,VALID,300,VALID,0,
2011-08-18, 03:45:04,VALID,1002.92,VALID,0,INVALID,163.731,VALID,0,VALID,24.3052,VALID,295,VALID,0,
2011-08-18, 03:46:04,VALID,1002.92,VALID,0,INVALID,163.723,VALID,0,VALID,24.2857,VALID,295,VALID,0,
2011-08-18, 03:47:04,VALID,1002.92,VALID,0,INVALID,163.693,VALID,0,VALID,24.2857,VALID,260,VALID,0,
2011-08-18, 03:48:04,VALID,1002.94,VALID,0,INVALID,163.746,VALID,0,VALID,24.2857,VALID,297,VALID,0,
2011-08-18, 03:49:04,VALID,1002.96,VALID,0,INVALID,163.716,VALID,0,VALID,24.2662,VALID,281,VALID,0,
2011-08-18, 03:50:04,VALID,1003,VALID,0,INVALID,163.693,VALID,0,VALID,24.2468,VALID,305,VALID,0,
2011-08-18, 03:51:04,VALID,1003,VALID,0,INVALID,163.739,VALID,0,VALID,24.2468,VALID,305,VALID,0,
2011-08-18, 03:52:04,VALID,1003,VALID,0,INVALID,163.746,VALID,0.100563,VALID,24.2468,VALID,302,VALID,0,
2011-08-18, 03:53:04,VALID,1003.01,VALID,0,INVALID,163.708,VALID,0.100563,VALID,24.2468,VALID,283,VALID,0,